Year,Month,Day,Hour,Minute,Value (Times are PST for barometer in hPa)
2022,02,21,00,00,1011.17
2022,02,21,00,01,1011.17
2022,02,21,00,02,1011.18
2022,02,21,00,03,1011.15
2022,02,21,00,04,1011.12
2022,02,21,00,05,1011.13
2022,02,21,00,06,1011.12
2022,02,21,00,07,1011.11
2022,02,21,00,08,1011.06
2022,02,21,00,09,1011.06
2022,02,21,00,10,1011.03
2022,02,21,00,11,1011.03
2022,02,21,00,12,1011.06
2022,02,21,00,13,1011.05
2022,02,21,00,14,1011.04
2022,02,21,00,15,1011.02
2022,02,21,00,16,1011.01
2022,02,21,00,17,1011.01
2022,02,21,00,18,1011.05
2022,02,21,00,19,1011.05
2022,02,21,00,20,1011.04
2022,02,21,00,21,1011.02
2022,02,21,00,22,1010.98
2022,02,21,00,23,1010.97
2022,02,21,00,24,1010.97
2022,02,21,00,25,1010.95
2022,02,21,00,26,1010.92
2022,02,21,00,27,1010.88
2022,02,21,00,28,1010.87
2022,02,21,00,29,1010.85
2022,02,21,00,30,1010.89
2022,02,21,00,31,1010.86
2022,02,21,00,32,1010.89
2022,02,21,00,33,1010.88
2022,02,21,00,34,1010.87
2022,02,21,00,35,1010.87
2022,02,21,00,36,1010.87
2022,02,21,00,37,1010.85
2022,02,21,00,38,1010.81
2022,02,21,00,39,1010.83
2022,02,21,00,40,1010.84
2022,02,21,00,41,1010.81
2022,02,21,00,42,1010.80
2022,02,21,00,43,1010.83
2022,02,21,00,44,1010.81
2022,02,21,00,45,1010.83
2022,02,21,00,46,1010.79
2022,02,21,00,47,1010.79
2022,02,21,00,48,1010.80
2022,02,21,00,49,1010.80
2022,02,21,00,50,1010.78
2022,02,21,00,51,1010.82
2022,02,21,00,52,1010.81
2022,02,21,00,53,1010.80
2022,02,21,00,54,1010.80
2022,02,21,00,55,1010.80
2022,02,21,00,56,1010.83
2022,02,21,00,57,1010.84
2022,02,21,00,58,1010.86
2022,02,21,00,59,1010.82
2022,02,21,01,00,1010.80
2022,02,21,01,01,1010.83
2022,02,21,01,02,1010.81
2022,02,21,01,03,1010.80
2022,02,21,01,04,1010.80
2022,02,21,01,05,1010.80
2022,02,21,01,06,1010.78
2022,02,21,01,07,1010.84
2022,02,21,01,08,1010.85
2022,02,21,01,09,1010.84
2022,02,21,01,10,1010.86
2022,02,21,01,11,1010.87
2022,02,21,01,12,1010.87
2022,02,21,01,13,1010.90
2022,02,21,01,14,1010.91
2022,02,21,01,15,1010.91
2022,02,21,01,16,1010.88
2022,02,21,01,17,1010.90
2022,02,21,01,18,1010.91
2022,02,21,01,19,1010.91
2022,02,21,01,20,1010.93
2022,02,21,01,21,1010.94
2022,02,21,01,22,1010.96
2022,02,21,01,23,1010.95
2022,02,21,01,24,1010.96
2022,02,21,01,25,1010.97
2022,02,21,01,26,1011.00
2022,02,21,01,27,1010.98
2022,02,21,01,28,1010.95
2022,02,21,01,29,1010.96
2022,02,21,01,30,1011.00
2022,02,21,01,31,1011.01
2022,02,21,01,32,1011.03
2022,02,21,01,33,1011.02
2022,02,21,01,34,1011.03
2022,02,21,01,35,1011.04
2022,02,21,01,36,1011.04
2022,02,21,01,37,1011.04
2022,02,21,01,38,1011.04
2022,02,21,01,39,1011.09
2022,02,21,01,40,1011.11
2022,02,21,01,41,1011.06
2022,02,21,01,42,1011.06
2022,02,21,01,43,1011.05
2022,02,21,01,44,1011.02
2022,02,21,01,45,1011.05
2022,02,21,01,46,1011.03
2022,02,21,01,47,1010.98
2022,02,21,01,48,1011.00
2022,02,21,01,49,1010.98
2022,02,21,01,50,1010.97
2022,02,21,01,51,1010.97
2022,02,21,01,52,1010.97
2022,02,21,01,53,1010.97
2022,02,21,01,54,1010.95
2022,02,21,01,55,1010.96
2022,02,21,01,56,1010.97
2022,02,21,01,57,1010.93
2022,02,21,01,58,1010.95
2022,02,21,01,59,1010.93
2022,02,21,02,00,1010.91
2022,02,21,02,01,1010.93
2022,02,21,02,02,1010.96
2022,02,21,02,03,1010.95
2022,02,21,02,04,1010.96
2022,02,21,02,05,1010.95
2022,02,21,02,06,1010.94
2022,02,21,02,07,1010.94
2022,02,21,02,08,1010.92
2022,02,21,02,09,1010.93
2022,02,21,02,10,1010.94
2022,02,21,02,11,1010.94
2022,02,21,02,12,1010.94
2022,02,21,02,13,1010.92
2022,02,21,02,14,1010.91
2022,02,21,02,15,1010.88
2022,02,21,02,16,1010.85
2022,02,21,02,17,1010.79
2022,02,21,02,18,1010.77
2022,02,21,02,19,1010.75
2022,02,21,02,20,1010.74
2022,02,21,02,21,1010.71
2022,02,21,02,22,1010.65
2022,02,21,02,23,1010.66
2022,02,21,02,24,1010.64
2022,02,21,02,25,1010.63
2022,02,21,02,26,1010.68
2022,02,21,02,27,1010.70
2022,02,21,02,28,1010.68
2022,02,21,02,29,1010.72
2022,02,21,02,30,1010.69
2022,02,21,02,31,1010.67
2022,02,21,02,32,1010.67
2022,02,21,02,33,1010.69
2022,02,21,02,34,1010.70
2022,02,21,02,35,1010.73
2022,02,21,02,36,1010.74
2022,02,21,02,37,1010.71
2022,02,21,02,38,1010.70
2022,02,21,02,39,1010.70
2022,02,21,02,40,1010.70
2022,02,21,02,41,1010.70
2022,02,21,02,42,1010.68
2022,02,21,02,43,1010.69
2022,02,21,02,44,1010.70
2022,02,21,02,45,1010.68
2022,02,21,02,46,1010.69
2022,02,21,02,47,1010.68
2022,02,21,02,48,1010.67
2022,02,21,02,49,1010.69
2022,02,21,02,50,1010.68
2022,02,21,02,51,1010.67
2022,02,21,02,52,1010.67
2022,02,21,02,53,1010.64
2022,02,21,02,54,1010.61
2022,02,21,02,55,1010.60
2022,02,21,02,56,1010.62
2022,02,21,02,57,1010.61
2022,02,21,02,58,1010.60
2022,02,21,02,59,1010.60
2022,02,21,03,00,1010.58
2022,02,21,03,01,1010.57
2022,02,21,03,02,1010.57
2022,02,21,03,06,1010.60
2022,02,21,03,07,1010.57
2022,02,21,03,08,1010.54
2022,02,21,03,09,1010.61
2022,02,21,03,10,1010.54
2022,02,21,03,11,1010.56
2022,02,21,03,12,1010.60
2022,02,21,03,13,1010.60
2022,02,21,03,14,1010.57
2022,02,21,03,15,1010.57
2022,02,21,03,16,1010.53
2022,02,21,03,17,1010.59
2022,02,21,03,18,1010.54
2022,02,21,03,19,1010.50
2022,02,21,03,20,1010.47
2022,02,21,03,21,1010.52
2022,02,21,03,22,1010.53
2022,02,21,03,23,1010.53
2022,02,21,03,24,1010.53
2022,02,21,03,25,1010.47
2022,02,21,03,26,1010.49
2022,02,21,03,27,1010.46
2022,02,21,03,28,1010.49
2022,02,21,03,29,1010.47
2022,02,21,03,30,1010.49
2022,02,21,03,31,1010.50
2022,02,21,03,32,1010.47
2022,02,21,03,33,1010.49
2022,02,21,03,34,1010.47
2022,02,21,03,35,1010.46
2022,02,21,03,36,1010.46
2022,02,21,03,37,1010.49
2022,02,21,03,38,1010.47
2022,02,21,03,39,1010.52
2022,02,21,03,40,1010.50
2022,02,21,03,41,1010.44
2022,02,21,03,42,1010.46
2022,02,21,03,43,1010.46
2022,02,21,03,44,1010.46
2022,02,21,03,45,1010.46
2022,02,21,03,46,1010.41
2022,02,21,03,47,1010.48
2022,02,21,03,48,1010.50
2022,02,21,03,49,1010.47
2022,02,21,03,50,1010.52
2022,02,21,03,51,1010.50
2022,02,21,03,52,1010.53
2022,02,21,03,53,1010.53
2022,02,21,03,54,1010.53
2022,02,21,03,55,1010.50
2022,02,21,03,56,1010.53
2022,02,21,03,57,1010.53
2022,02,21,03,58,1010.56
2022,02,21,03,59,1010.54
2022,02,21,04,00,1010.53
2022,02,21,04,01,1010.53
2022,02,21,04,02,1010.56
2022,02,21,04,03,1010.57
2022,02,21,04,04,1010.57
2022,02,21,04,05,1010.54
2022,02,21,04,06,1010.53
2022,02,21,04,07,1010.53
2022,02,21,04,08,1010.56
2022,02,21,04,09,1010.57
2022,02,21,04,10,1010.57
2022,02,21,04,11,1010.57
2022,02,21,04,12,1010.57
2022,02,21,04,13,1010.54
2022,02,21,04,14,1010.53
2022,02,21,04,15,1010.53
2022,02,21,04,16,1010.56
2022,02,21,04,17,1010.60
2022,02,21,04,18,1010.60
2022,02,21,04,19,1010.58
2022,02,21,04,20,1010.60
2022,02,21,04,21,1010.60
2022,02,21,04,22,1010.57
2022,02,21,04,23,1010.62
2022,02,21,04,24,1010.60
2022,02,21,04,25,1010.63
2022,02,21,04,26,1010.63
2022,02,21,04,27,1010.66
2022,02,21,04,28,1010.70
2022,02,21,04,29,1010.64
2022,02,21,04,30,1010.66
2022,02,21,04,31,1010.73
2022,02,21,04,32,1010.68
2022,02,21,04,33,1010.70
2022,02,21,04,34,1010.73
2022,02,21,04,35,1010.77
2022,02,21,04,36,1010.80
2022,02,21,04,37,1010.75
2022,02,21,04,38,1010.71
2022,02,21,04,39,1010.76
2022,02,21,04,40,1010.68
2022,02,21,04,41,1010.70
2022,02,21,04,42,1010.70
2022,02,21,04,43,1010.67
2022,02,21,04,44,1010.61
2022,02,21,04,45,1010.63
2022,02,21,04,46,1010.69
2022,02,21,04,47,1010.64
2022,02,21,04,48,1010.63
2022,02,21,04,49,1010.69
2022,02,21,04,50,1010.64
2022,02,21,04,51,1010.66
2022,02,21,04,52,1010.64
2022,02,21,04,53,1010.66
2022,02,21,04,54,1010.64
2022,02,21,04,55,1010.61
2022,02,21,04,56,1010.68
2022,02,21,04,57,1010.61
2022,02,21,04,58,1010.66
2022,02,21,04,59,1010.64
2022,02,21,05,00,1010.60
2022,02,21,05,01,1010.66
2022,02,21,05,02,1010.61
2022,02,21,05,03,1010.63
2022,02,21,05,04,1010.58
2022,02,21,05,05,1010.62
2022,02,21,05,06,1010.60
2022,02,21,05,07,1010.63
2022,02,21,05,08,1010.66
2022,02,21,05,09,1010.64
2022,02,21,05,10,1010.66
2022,02,21,05,11,1010.64
2022,02,21,05,12,1010.60
2022,02,21,05,13,1010.66
2022,02,21,05,14,1010.64
2022,02,21,05,15,1010.63
2022,02,21,05,16,1010.63
2022,02,21,05,17,1010.63
2022,02,21,05,18,1010.60
2022,02,21,05,19,1010.63
2022,02,21,05,20,1010.63
2022,02,21,05,21,1010.60
2022,02,21,05,22,1010.60
2022,02,21,05,23,1010.66
2022,02,21,05,24,1010.64
2022,02,21,05,25,1010.69
2022,02,21,05,26,1010.70
2022,02,21,05,27,1010.67
2022,02,21,05,28,1010.70
2022,02,21,05,29,1010.67
2022,02,21,05,30,1010.67
2022,02,21,05,31,1010.67
2022,02,21,05,32,1010.70
2022,02,21,05,33,1010.64
2022,02,21,05,34,1010.63
2022,02,21,05,35,1010.66
2022,02,21,05,36,1010.64
2022,02,21,05,37,1010.66
2022,02,21,05,38,1010.61
2022,02,21,05,39,1010.63
2022,02,21,05,40,1010.63
2022,02,21,05,41,1010.60
2022,02,21,05,42,1010.63
2022,02,21,05,43,1010.60
2022,02,21,05,44,1010.63
2022,02,21,05,45,1010.63
2022,02,21,05,46,1010.60
2022,02,21,05,47,1010.63
2022,02,21,05,48,1010.63
2022,02,21,05,49,1010.60
2022,02,21,05,50,1010.60
2022,02,21,05,51,1010.63
2022,02,21,05,52,1010.63
2022,02,21,05,53,1010.63
2022,02,21,05,54,1010.63
2022,02,21,05,55,1010.63
2022,02,21,05,56,1010.63
2022,02,21,05,57,1010.66
2022,02,21,05,58,1010.64
2022,02,21,05,59,1010.63
2022,02,21,06,00,1010.63
2022,02,21,06,01,1010.63
2022,02,21,06,02,1010.66
2022,02,21,06,03,1010.67
2022,02,21,06,04,1010.64
2022,02,21,06,05,1010.63
2022,02,21,06,06,1010.66
2022,02,21,06,07,1010.64
2022,02,21,06,08,1010.66
2022,02,21,06,09,1010.64
2022,02,21,06,10,1010.63
2022,02,21,06,11,1010.66
2022,02,21,06,12,1010.67
2022,02,21,06,13,1010.67
2022,02,21,06,14,1010.67
2022,02,21,06,15,1010.67
2022,02,21,06,16,1010.67
2022,02,21,06,17,1010.67
2022,02,21,06,18,1010.67
2022,02,21,06,19,1010.67
2022,02,21,06,20,1010.67
2022,02,21,06,21,1010.67
2022,02,21,06,22,1010.67
2022,02,21,06,23,1010.69
2022,02,21,06,24,1010.73
2022,02,21,06,25,1010.74
2022,02,21,06,26,1010.76
2022,02,21,06,27,1010.77
2022,02,21,06,28,1010.80
2022,02,21,06,29,1010.77
2022,02,21,06,30,1010.77
2022,02,21,06,31,1010.75
2022,02,21,06,32,1010.76
2022,02,21,06,33,1010.79
2022,02,21,06,34,1010.80
2022,02,21,06,35,1010.86
2022,02,21,06,36,1010.93
2022,02,21,06,37,1010.94
2022,02,21,06,38,1010.94
2022,02,21,06,39,1010.94
2022,02,21,06,40,1010.94
2022,02,21,06,41,1010.91
2022,02,21,06,42,1010.96
2022,02,21,06,43,1010.95
2022,02,21,06,44,1010.97
2022,02,21,06,45,1011.00
2022,02,21,06,46,1010.98
2022,02,21,06,47,1011.00
2022,02,21,06,48,1010.98
2022,02,21,06,49,1011.00
2022,02,21,06,50,1011.03
2022,02,21,06,51,1011.01
2022,02,21,06,52,1011.06
2022,02,21,06,53,1011.02
2022,02,21,06,54,1011.04
2022,02,21,06,55,1011.04
2022,02,21,06,56,1011.04
2022,02,21,06,57,1011.10
2022,02,21,06,58,1011.08
2022,02,21,06,59,1011.05
2022,02,21,07,00,1011.06
2022,02,21,07,01,1011.05
2022,02,21,07,02,1011.06
2022,02,21,07,03,1011.05
2022,02,21,07,04,1011.10
2022,02,21,07,05,1011.08
2022,02,21,07,06,1011.10
2022,02,21,07,07,1011.13
2022,02,21,07,08,1011.20
2022,02,21,07,09,1011.27
2022,02,21,07,10,1011.28
2022,02,21,07,11,1011.30
2022,02,21,07,12,1011.39
2022,02,21,07,13,1011.44
2022,02,21,07,14,1011.47
2022,02,21,07,15,1011.48
2022,02,21,07,16,1011.48
2022,02,21,07,17,1011.50
2022,02,21,07,18,1011.57
2022,02,21,07,19,1011.58
2022,02,21,07,20,1011.58
2022,02,21,07,21,1011.61
2022,02,21,07,22,1011.67
2022,02,21,07,23,1011.71
2022,02,21,07,24,1011.69
2022,02,21,07,25,1011.68
2022,02,21,07,26,1011.71
2022,02,21,07,27,1011.78
2022,02,21,07,28,1011.79
2022,02,21,07,29,1011.75
2022,02,21,07,30,1011.83
2022,02,21,07,31,1011.83
2022,02,21,07,32,1011.80
2022,02,21,07,33,1011.82
2022,02,21,07,34,1011.82
2022,02,21,07,35,1011.84
2022,02,21,07,36,1011.80
2022,02,21,07,37,1011.84
2022,02,21,07,38,1011.80
2022,02,21,07,39,1011.79
2022,02,21,07,40,1011.79
2022,02,21,07,41,1011.76
2022,02,21,07,42,1011.78
2022,02,21,07,43,1011.76
2022,02,21,07,44,1011.75
2022,02,21,07,45,1011.75
2022,02,21,07,46,1011.75
2022,02,21,07,47,1011.73
2022,02,21,07,48,1011.74
2022,02,21,07,49,1011.78
2022,02,21,07,50,1011.76
2022,02,21,07,51,1011.78
2022,02,21,07,52,1011.76
2022,02,21,07,53,1011.78
2022,02,21,07,54,1011.81
2022,02,21,07,55,1011.80
2022,02,21,07,56,1011.76
2022,02,21,07,57,1011.75
2022,02,21,07,58,1011.78
2022,02,21,07,59,1011.79
2022,02,21,08,00,1011.79
2022,02,21,08,01,1010.68
2022,02,21,08,02,1010.40
2022,02,21,08,03,1009.16
2022,02,21,08,04,1009.01
2022,02,21,08,05,1009.01
2022,02,21,08,06,1009.01
2022,02,21,08,07,1009.01
2022,02,21,08,08,1007.95
2022,02,21,08,09,1007.69
2022,02,21,08,10,1007.69
2022,02,21,08,11,1007.69
2022,02,21,08,12,1005.50
2022,02,21,08,13,1004.95
2022,02,21,08,14,1003.84
2022,02,21,08,15,1003.64
2022,02,21,08,16,1003.66
2022,02,21,08,17,1003.66
2022,02,21,08,18,1003.66
2022,02,21,08,19,1003.66
2022,02,21,08,20,1003.63
2022,02,21,08,21,1003.62
2022,02,21,08,22,1004.76
2022,02,21,08,23,1005.05
2022,02,21,08,24,1005.05
2022,02,21,08,25,1005.05
2022,02,21,08,26,1005.05
2022,02,21,08,27,1005.05
2022,02,21,08,28,1005.05
2022,02,21,08,29,1005.05
2022,02,21,08,30,1005.05
2022,02,21,08,31,1009.68
2022,02,21,08,32,1010.84
2022,02,21,08,33,1009.71
2022,02,21,08,34,1009.51
2022,02,21,08,35,1009.52
2022,02,21,08,36,1009.52
2022,02,21,08,37,1011.77
2022,02,21,08,38,1012.33
2022,02,21,08,39,1012.33
2022,02,21,08,40,1012.33
2022,02,21,08,41,1012.39
2022,02,21,08,42,1011.99
2022,02,21,08,43,1011.56
2022,02,21,08,44,1011.48
2022,02,21,08,45,1012.23
2022,02,21,08,46,1012.48
2022,02,21,08,47,1012.47
2022,02,21,08,48,1012.46
2022,02,21,08,49,1012.49
2022,02,21,08,50,1012.55
2022,02,21,08,51,1012.56
2022,02,21,08,52,1011.89
2022,02,21,08,53,1011.72
2022,02,21,08,54,1012.29
2022,02,21,08,55,1012.49
2022,02,21,08,56,1012.47
2022,02,21,08,57,1012.46
2022,02,21,08,58,1012.49
2022,02,21,08,59,1012.50
2022,02,21,09,00,1012.07
2022,02,21,09,01,1011.69
2022,02,21,09,02,1011.62
2022,02,21,09,03,1012.34
2022,02,21,09,04,1012.53
2022,02,21,09,05,1012.53
2022,02,21,09,06,1012.39
2022,02,21,09,07,1012.36
2022,02,21,09,08,1012.36
2022,02,21,09,09,1012.36
2022,02,21,09,10,1012.36
2022,02,21,09,11,1012.36
2022,02,21,09,12,1012.36
2022,02,21,09,13,1012.36
2022,02,21,09,14,1012.36
2022,02,21,09,15,1012.36
2022,02,21,09,16,999.03
2022,02,21,09,17,995.70
2022,02,21,09,18,995.70
2022,02,21,09,19,995.70
2022,02,21,09,20,995.70
2022,02,21,09,21,995.70
2022,02,21,09,22,998.90
2022,02,21,09,23,999.29
2022,02,21,09,24,998.89
2022,02,21,09,25,998.82
2022,02,21,09,26,998.82
2022,02,21,09,27,998.82
2022,02,21,09,28,998.82
2022,02,21,09,29,998.82
2022,02,21,09,30,998.82
2022,02,21,09,31,998.82
2022,02,21,09,32,998.82
2022,02,21,09,33,998.82
2022,02,21,09,34,998.82
2022,02,21,09,35,998.82
2022,02,21,09,36,996.45
2022,02,21,09,37,996.19
2022,02,21,09,38,996.37
2022,02,21,09,39,996.41
2022,02,21,09,40,993.35
2022,02,21,09,41,992.04
2022,02,21,09,42,991.91
2022,02,21,09,43,991.91
2022,02,21,09,44,991.91
2022,02,21,09,45,1007.27
2022,02,21,09,46,1011.11
2022,02,21,09,47,1009.40
2022,02,21,09,48,1008.94
2022,02,21,09,49,1008.94
2022,02,21,09,50,1008.94
2022,02,21,09,51,1008.94
2022,02,21,09,52,1008.94
2022,02,21,09,53,1008.94
2022,02,21,09,54,1008.94
2022,02,21,09,55,1008.94
2022,02,21,09,56,1008.94
2022,02,21,09,57,1008.94
2022,02,21,09,58,1008.94
2022,02,21,09,59,1008.94
2022,02,21,10,00,1008.94
2022,02,21,10,01,1008.94
2022,02,21,10,02,1008.94
2022,02,21,10,03,1008.94
2022,02,21,10,04,1008.94
2022,02,21,10,05,1008.94
2022,02,21,10,06,1008.94
2022,02,21,10,07,1008.94
2022,02,21,10,08,1008.94
2022,02,21,10,09,1008.94
2022,02,21,10,10,1008.94
2022,02,21,10,11,1008.94
2022,02,21,10,12,1008.94
2022,02,21,10,13,1008.94
2022,02,21,10,14,1008.94
2022,02,21,10,15,1008.94
2022,02,21,10,16,1008.94
2022,02,21,10,17,1008.94
2022,02,21,10,18,1008.94
2022,02,21,10,19,1008.94
2022,02,21,10,20,1008.94
2022,02,21,10,21,1008.94
2022,02,21,10,22,1008.94
2022,02,21,10,23,1008.94
2022,02,21,10,24,1008.94
2022,02,21,10,25,1008.94
2022,02,21,10,26,1008.94
2022,02,21,10,27,1008.94
2022,02,21,10,28,1008.94
2022,02,21,10,29,1008.94
2022,02,21,12,48,1029.63
2022,02,21,12,49,1029.63
2022,02,21,12,50,1029.63
2022,02,21,12,51,1029.63
2022,02,21,12,52,1029.63
2022,02,21,12,53,1029.63
2022,02,21,12,54,1029.63
2022,02,21,12,55,1029.63
2022,02,21,12,56,1029.63
2022,02,21,12,57,1029.63
2022,02,21,12,58,1029.63
2022,02,21,12,59,1029.63
2022,02,21,13,00,1029.63
2022,02,21,13,01,1031.79
2022,02,21,13,02,1032.51
2022,02,21,13,03,1032.51
2022,02,21,13,04,1032.51
2022,02,21,13,05,1032.51
2022,02,21,13,06,1032.51
2022,02,21,13,07,1032.51
2022,02,21,13,08,1032.51
2022,02,21,13,09,1032.51
2022,02,21,13,10,1032.51
2022,02,21,13,11,1032.51
2022,02,21,13,12,1032.51
2022,02,21,13,13,1032.51
2022,02,21,13,14,1032.51
2022,02,21,13,15,1032.51
2022,02,21,13,16,1032.51
2022,02,21,13,17,1032.51
2022,02,21,13,18,1032.51
2022,02,21,13,19,1032.51
2022,02,21,13,20,1032.51
2022,02,21,13,21,1032.51
2022,02,21,13,22,1032.51
2022,02,21,13,23,1032.51
2022,02,21,13,24,1032.51
2022,02,21,13,25,1032.51
2022,02,21,13,26,1032.51
2022,02,21,13,27,1032.51
2022,02,21,13,28,1032.51
2022,02,21,13,29,1032.51
2022,02,21,13,30,1032.51
2022,02,21,13,31,1032.51
2022,02,21,13,32,1032.51
2022,02,21,13,33,1032.51
2022,02,21,13,34,1032.51
2022,02,21,13,35,1032.51
2022,02,21,13,36,1032.51
2022,02,21,13,37,1032.51
2022,02,21,13,38,1032.51
2022,02,21,13,39,1032.51
2022,02,21,13,40,1032.51
2022,02,21,13,41,1032.51
2022,02,21,13,42,1032.51
2022,02,21,13,43,1032.51
2022,02,21,13,44,1032.51
2022,02,21,13,45,1032.51
2022,02,21,13,46,1032.51
2022,02,21,13,47,1032.51
2022,02,21,13,48,1032.51
2022,02,21,13,49,1032.51
2022,02,21,13,50,1032.51
2022,02,21,13,51,1032.51
2022,02,21,13,52,1032.51
2022,02,21,13,53,1032.51
2022,02,21,13,54,1032.51
2022,02,21,13,55,1032.51
2022,02,21,13,56,1032.51
2022,02,21,13,57,1032.51
2022,02,21,13,58,1032.51
2022,02,21,13,59,1032.51
2022,02,21,14,00,1032.51
2022,02,21,14,01,1032.51
2022,02,21,14,02,1032.51
2022,02,21,14,03,1032.51
2022,02,21,14,04,1032.51
2022,02,21,14,05,1032.51
2022,02,21,14,06,1032.51
2022,02,21,14,07,1032.51
2022,02,21,14,08,1032.51
2022,02,21,14,09,1032.51
2022,02,21,14,10,1032.51
2022,02,21,14,11,1032.51
2022,02,21,14,12,1032.51
2022,02,21,14,13,1032.51
2022,02,21,14,14,1032.51
2022,02,21,14,15,1032.51
2022,02,21,14,16,1032.51
2022,02,21,14,17,1032.51
2022,02,21,14,18,1032.51
2022,02,21,14,19,1032.51
2022,02,21,14,20,1032.51
2022,02,21,14,21,1032.51
2022,02,21,14,22,1009.55
2022,02,21,14,23,1001.90
2022,02,21,14,24,1001.90
2022,02,21,14,25,1001.90
2022,02,21,14,26,1001.90
2022,02,21,14,27,1001.90
2022,02,21,14,28,1001.90
2022,02,21,14,29,1001.90
2022,02,21,14,30,1001.90
2022,02,21,14,31,1001.90
2022,02,21,14,32,1001.90
2022,02,21,14,33,1001.90
2022,02,21,14,34,1001.90
2022,02,21,14,35,1001.90
2022,02,21,14,36,1001.90
2022,02,21,14,37,1001.90
2022,02,21,14,38,1001.90
2022,02,21,14,39,1044.36
2022,02,21,14,40,1058.52
2022,02,21,14,41,1058.52
2022,02,21,14,42,1058.52
2022,02,21,14,43,1058.52
2022,02,21,14,44,1058.52
2022,02,21,14,45,1058.52
2022,02,21,14,46,1058.52
2022,02,21,14,47,1058.52
2022,02,21,14,48,1058.52
2022,02,21,14,49,1058.52
2022,02,21,14,50,1058.52
2022,02,21,14,51,1058.52
2022,02,21,14,52,1058.52
2022,02,21,14,53,1058.52
2022,02,21,14,54,1058.52
2022,02,21,14,55,1058.52
2022,02,21,14,56,1058.52
2022,02,21,14,57,1058.52
2022,02,21,14,58,1058.52
2022,02,21,14,59,1058.52
2022,02,21,15,00,1058.52
2022,02,21,15,01,1058.52
2022,02,21,15,02,1058.52
2022,02,21,15,03,1058.52
2022,02,21,15,04,1058.52
2022,02,21,15,05,1058.52
2022,02,21,15,06,1058.52
2022,02,21,15,07,1058.52
2022,02,21,15,08,1058.52
2022,02,21,15,09,1058.52
2022,02,21,15,10,1058.52
2022,02,21,15,11,1058.52
2022,02,21,15,12,1058.52
2022,02,21,15,13,1058.52
2022,02,21,15,14,1058.52
2022,02,21,15,15,1058.52
2022,02,21,15,16,1058.52
2022,02,21,15,17,1058.52
2022,02,21,15,18,1058.52
2022,02,21,15,19,1058.52
2022,02,21,15,20,1058.52
2022,02,21,15,21,1058.52
2022,02,21,15,22,1058.52
2022,02,21,15,23,1058.52
2022,02,21,15,24,1058.52
2022,02,21,15,25,1058.52
2022,02,21,15,26,1058.52
2022,02,21,15,27,1058.52
2022,02,21,15,28,1058.52
2022,02,21,15,29,1058.52
2022,02,21,15,30,1058.52
2022,02,21,15,31,1058.52
2022,02,21,15,32,1058.52
2022,02,21,15,33,1058.52
2022,02,21,15,34,1058.52
2022,02,21,15,35,1058.52
2022,02,21,15,36,1058.52
2022,02,21,15,37,1058.52
2022,02,21,15,38,1058.52
2022,02,21,15,39,1058.52
2022,02,21,15,40,1058.52
2022,02,21,15,41,1058.52
2022,02,21,15,42,1058.52
2022,02,21,15,43,1058.52
2022,02,21,15,44,1058.52
2022,02,21,15,45,1058.52
2022,02,21,15,46,1058.52
2022,02,21,15,47,1058.52
2022,02,21,15,48,1058.52
2022,02,21,15,49,1058.52
2022,02,21,15,50,1058.52
2022,02,21,15,51,1058.52
2022,02,21,15,52,1058.52
2022,02,21,15,53,1058.52
2022,02,21,15,54,1058.52
2022,02,21,15,55,1058.52
2022,02,21,15,56,1058.52
2022,02,21,15,57,1058.52
2022,02,21,15,58,1058.52
2022,02,21,15,59,1058.52
2022,02,21,16,00,1058.52
2022,02,21,16,01,1058.52
2022,02,21,16,02,1058.52
2022,02,21,16,03,1058.52
2022,02,21,16,37,946.87
2022,02,21,16,38,946.87
2022,02,21,16,39,946.87
2022,02,21,16,40,946.87
2022,02,21,16,41,946.87
2022,02,21,16,42,946.87
2022,02,21,16,43,946.87
2022,02,21,16,44,946.87
2022,02,21,16,45,946.87
2022,02,21,16,46,946.87
2022,02,21,16,47,946.87
2022,02,21,16,48,946.87
2022,02,21,16,49,946.87
2022,02,21,16,50,946.87
2022,02,21,16,51,946.87
2022,02,21,16,52,946.87
2022,02,21,16,53,946.87
2022,02,21,16,54,946.28
2022,02,21,16,55,946.02
2022,02,21,16,56,946.02
2022,02,21,16,57,946.02
2022,02,21,16,58,946.02
2022,02,21,16,59,946.02
2022,02,21,17,00,946.02
2022,02,21,17,01,961.94
2022,02,21,17,02,967.25
2022,02,21,17,03,967.25
2022,02,21,17,04,967.25
2022,02,21,17,05,967.25
2022,02,21,17,06,967.25
2022,02,21,17,07,967.25
2022,02,21,17,08,967.25
2022,02,21,17,09,967.25
2022,02,21,17,10,967.25
2022,02,21,17,11,971.62
2022,02,21,17,12,973.49
2022,02,21,17,13,973.49
2022,02,21,17,14,973.49
2022,02,21,17,15,973.49
2022,02,21,17,16,973.49
2022,02,21,17,17,973.49
2022,02,21,17,18,973.49
2022,02,21,17,19,973.49
2022,02,21,17,20,973.49
2022,02,21,17,21,973.49
2022,02,21,17,22,973.49
2022,02,21,17,23,973.49
2022,02,21,17,24,973.49
2022,02,21,17,25,973.49
2022,02,21,17,26,973.49
2022,02,21,17,27,973.49
2022,02,21,17,28,973.49
2022,02,21,17,29,973.49
2022,02,21,17,30,973.49
2022,02,21,17,31,973.49
2022,02,21,17,32,973.49
2022,02,21,17,33,973.49
2022,02,21,17,34,973.49
2022,02,21,17,35,973.49
2022,02,21,17,36,973.49
2022,02,21,17,37,973.49
2022,02,21,17,38,973.49
2022,02,21,17,39,973.49
2022,02,21,17,40,973.49
2022,02,21,17,41,973.49
2022,02,21,17,42,973.49
2022,02,21,17,43,973.49
2022,02,21,17,44,973.49
2022,02,21,17,45,986.29
2022,02,21,17,46,990.86
2022,02,21,17,47,990.86
2022,02,21,17,48,990.86
2022,02,21,17,49,990.86
2022,02,21,17,50,990.86
2022,02,21,17,51,990.86
2022,02,21,17,52,990.86
2022,02,21,17,53,990.86
2022,02,21,17,54,990.86
2022,02,21,17,55,990.86
2022,02,21,17,56,995.96
2022,02,21,17,57,998.14
2022,02,21,17,58,998.14
2022,02,21,17,59,998.14
2022,02,21,18,00,998.14
2022,02,21,18,01,998.14
2022,02,21,18,02,998.14
2022,02,21,18,03,998.14
2022,02,21,18,04,994.98
2022,02,21,18,05,993.85
2022,02,21,18,06,993.94
2022,02,21,18,07,993.94
2022,02,21,18,08,993.94
2022,02,21,18,09,993.94
2022,02,21,18,10,993.94
2022,02,21,18,11,993.94
2022,02,21,18,12,993.94
2022,02,21,18,13,993.94
2022,02,21,18,14,996.40
2022,02,21,18,15,997.46
2022,02,21,18,16,997.46
2022,02,21,18,17,997.46
2022,02,21,18,18,997.46
2022,02,21,18,19,997.46
2022,02,21,18,20,998.91
2022,02,21,18,21,999.39
2022,02,21,18,22,999.39
2022,02,21,18,23,998.33
2022,02,21,18,24,998.32
2022,02,21,18,25,998.51
2022,02,21,18,26,998.51
2022,02,21,18,27,998.51
2022,02,21,18,28,998.51
2022,02,21,18,29,998.51
2022,02,21,18,30,998.51
2022,02,21,18,31,998.51
2022,02,21,18,32,998.51
2022,02,21,18,33,998.51
2022,02,21,18,34,998.51
2022,02,21,18,35,998.51
2022,02,21,18,36,998.51
2022,02,21,18,37,1008.85
2022,02,21,18,38,1013.28
2022,02,21,18,39,1012.13
2022,02,21,18,40,1011.51
2022,02,21,18,41,1011.51
2022,02,21,18,42,1011.66
2022,02,21,18,43,1011.72
2022,02,21,18,44,1011.72
2022,02,21,18,45,1011.72
2022,02,21,18,46,1011.72
2022,02,21,18,47,1011.72
2022,02,21,18,48,1011.72
2022,02,21,18,49,1011.72
2022,02,21,18,50,1011.72
2022,02,21,18,51,1011.72
2022,02,21,18,52,1011.72
2022,02,21,18,53,1011.72
2022,02,21,18,54,1011.72
2022,02,21,18,55,1011.72
2022,02,21,18,56,1011.72